Regional Weather Roundup
Issued by NWS Sioux Falls, SD

Home | Current Version | Previous Version | Text Only | Print | Product List | Glossary On
Versions: 1 2 3 4 5 6 7 8 9 10 11 12 13 14 15 16 17 18 19 20 21 22 23 24 25 26 27 28 29 30 31 32 33 34 35 36 37 38 39 40 41 42 43 44 45 46 47 48 49 50
000
ASUS43 KFSD 261310
RWRFSD

WEATHER ROUNDUP FOR SE SOUTH DAKOTA/SW MINNESOTA/NW IOWA
NATIONAL WEATHER SERVICE SIOUX FALLS SD
800 AM CDT TUE JUL 26 2016

NOTE: "FAIR" INDICATES FEW OR NO CLOUDS BELOW 12,000 FEET WITH NO
SIGNIFICANT WEATHER AND OR OBSTRUCTIONS TO VISIBILITY.


SDZ038>040-050-052>070-261400-
SOUTHEAST SOUTH DAKOTA

CITY           SKY/WX    TMP DP  RH WIND       PRES   REMARKS
BROOKINGS      SUNNY     69  64  84 S6        30.05F
CHAMBERLAIN    SUNNY     75  65  69 S10       30.00S
HURON          SUNNY     69  62  78 SE8       30.01S
MADISON        FAIR      66  66 100 S7        30.07S
MITCHELL       SUNNY     70  63  78 S7        30.03S
SIOUX FALLS    MOSUNNY   73  64  73 S9        30.07R
WINNER         FAIR      74  61  63 S16       30.02R
YANKTON        SUNNY     70  63  78 SE3       30.05F
$$

MNZ071-072-080-081-089-090-097-098-261400-
SOUTHWEST MINNESOTA

CITY           SKY/WX    TMP DP  RH WIND       PRES   REMARKS
FAIRMONT       SUNNY     72  64  78 SW6       30.07S
JACKSON        SUNNY     72  63  73 SW7       30.09S
LUVERNE        SUNNY     64  61  88 CALM      30.09R
MARSHALL       SUNNY     75  64  68 SW17      30.01F
MONTEVIDEO     SUNNY     73  66  78 SW6       30.03R
REDWOOD FALLS  SUNNY     72  64  76 SW9       30.03S
TRACY          SUNNY     73  66  78 SW15      30.05S
WINDOM         SUNNY     72  64  78 SW10      30.08R
WORTHINGTON    SUNNY     72  65  78 SW10      30.09S
$$

IAZ001>003-012>014-020>022-031-032-NEZ013-014-SDZ071-261400-
NORTHWEST IOWA

CITY           SKY/WX    TMP DP  RH WIND       PRES   REMARKS
CHEROKEE       MOSUNNY   66  65  99 CALM      30.09S
DENISON        SUNNY     66  64  94 CALM      30.08F
ESTHERVILLE    SUNNY     70  66  87 SW5       30.09R
LE MARS        SUNNY     70  66  88 SE3       30.08F
SHELDON        SUNNY     70  66  88 CALM      30.07F
SIOUX CITY     SUNNY     68  64  87 SE5       30.07S
SPENCER        SUNNY     69  65  86 SW3       30.09S
STORM LAKE     SUNNY     70  64  83 SW5       30.11S
$$

ABBREVIATIONS USED IN REMARKS
   TC - TEMPERATURE IN CELSIUS
  WCI - WIND CHILL INDEX
   HX - HEAT INDEX
  VSB - VISIBILITY





USA.gov is the U.S. government's official web portal to all federal, state and local government web resources and services.